Flag for Norway Weather past 2 weeks in Bardufoss, Norway

48 °F

Scattered showers. Partly sunny.

Feels Like: 46 °F
Forecast: 42 / 48 °F
Wind: 6 mph from Southwest

Location: Bardufoss

Current Time: Oct 13, 2015 at 2:51:50 PM

Latest Report: Oct 13, 2015 at 2:20 PM

Visibility: N/A

Pressure: 30.04 "Hg

Humidity: 71%

Dew point: 39 °F

Location of BardufossLocation

Historic Weather in Bardufoss — Graph


Bardufoss temperature yesterday

Maximum temperature yesterday: 50 °F (at 8:50 AM)
Minimum temperature yesterday: 37 °F (at 12:50 AM)
Average temperature yesterday: 46 °F

Past Weeks' High & Low Weather Summary

High63 °F (Sep 29, 3:20 PM)100% (Oct 1, 5:50 AM)30.51 "Hg (Oct 1, 5:50 AM)
Low16 °F (Oct 10, 7:20 AM)34% (Sep 29, 3:20 PM)29.06 "Hg (Oct 2, 9:50 AM)
Average38 °F82%30.04 "Hg
* Reported Sep 28 1:20 PM — Oct 13 1:50 PM, Bardufoss, Weather by CustomWeather, © 2015

Note: Actual official high and low records may vary slightly from our data, if they occured in-between our weather recording intervals... More about our weather records


Bardufoss weather history for previous 24 hours

Time TempWeatherWind HumidityBarometerVisibility
1:50 PM
Tue, Oct 13
46 °FPartly sunny.8 mph76%30.01 "HgN/A
1:20 PM48 °FSprinkles. Broken clouds.12 mph71%30.01 "HgN/A
12:50 PM48 °FScattered showers. Broken clouds.7 mph71%30.01 "HgN/A
12:20 PM45 °FSprinkles. Broken clouds.1 mph93%30.01 "HgN/A
11:50 AM45 °FSprinkles. Broken clouds.2 mph93%30.01 "HgN/A
11:20 AM45 °FSprinkles. Broken clouds.1 mph93%30.01 "HgN/A
10:50 AM45 °FSprinkles. Broken clouds.1 mph93%30.01 "HgN/A
10:20 AM43 °FBroken clouds.5 mph93%30.01 "HgN/A
9:50 AM45 °FBroken clouds.2 mph87%30.01 "HgN/A
9:20 AM45 °FPartly sunny.6 mph87%30.01 "HgN/A
8:50 AM43 °FPartly sunny.5 mph93%30.04 "HgN/A
8:20 AM45 °FPassing clouds.5 mph87%30.04 "HgN/A
7:50 AM46 °FPartly cloudy.5 mph82%30.04 "HgN/A
7:20 AM46 °FSprinkles. Passing clouds.7 mph82%30.07 "HgN/A
6:50 AM46 °FSprinkles. Passing clouds.7 mph87%30.07 "HgN/A
6:20 AM46 °FSprinkles. Passing clouds.7 mph82%30.07 "HgN/A
5:20 AM46 °FLight rain. Passing clouds.6 mph87%30.07 "HgN/A
4:50 AM46 °FLight rain. Passing clouds.7 mph87%30.09 "HgN/A
3:50 AM46 °FScattered showers. Passing clouds.7 mph87%30.09 "HgN/A
2:50 AM46 °FLight rain. Passing clouds.6 mph87%30.09 "HgN/A
1:50 AM46 °FPassing clouds.2 mph87%30.12 "HgN/A
12:50 AM46 °FScattered showers. Passing clouds.5 mph87%30.12 "HgN/A
11:50 PM
Mon, Oct 12
45 °FPassing clouds.1 mph93%30.12 "HgN/A
10:50 PM45 °FPassing clouds.1 mph93%30.15 "HgN/A
9:50 PM45 °FScattered showers. Passing clouds.2 mph93%30.15 "HgN/A
8:50 PM46 °FLight rain. Passing clouds.2 mph82%30.15 "HgN/A
7:50 PM46 °FPassing clouds.3 mph82%30.15 "HgN/A
6:50 PM48 °FPassing clouds.3 mph82%30.15 "HgN/A
6:20 PM48 °FPartly sunny.5 mph87%30.15 "HgN/A
5:50 PM48 °FPartly sunny.6 mph87%30.15 "HgN/A
5:20 PM48 °FScattered showers. Broken clouds.6 mph87%30.15 "HgN/A
4:50 PM50 °FLight rain. Broken clouds.5 mph82%30.15 "HgN/A
4:20 PM48 °FLight rain. Broken clouds.6 mph87%30.15 "HgN/A
3:50 PM50 °FLight rain. Broken clouds.7 mph88%30.15 "HgN/A
3:20 PM50 °FLight rain. Broken clouds.6 mph88%30.15 "HgN/A
2:50 PM50 °FLight rain. Broken clouds.5 mph88%30.15 "HgN/A
2:20 PM50 °FLight rain. Broken clouds.5 mph88%30.15 "HgN/A
Weather by CustomWeather, © 2015

See weather overviewHow to use our weather pages